[Iaude] MPEC V106: 2023 VE3 [a=1.67,e=0.43,i=11.4,H=26.8]
    mpec at marsden.cfa.harvard.edu 
    mpec at marsden.cfa.harvard.edu
       
    Tue Nov  7 21:09:31 EST 2023
    
    
  
M.P.E.C. 2023-V106                             Issued 2023 November 8, 02:07 UT
     The Minor Planet Electronic Circulars contain information on unusual
         minor planets, routine data on comets and natural satellites,
         and occasional editorial announcements.  They are published
    on behalf of Division F of the International Astronomical Union by the
          Minor Planet Center, Smithsonian Astrophysical Observatory,
                          Cambridge, MA 02138, U.S.A.
			  
             Prepared using the Tamkin Foundation Computer Network
                              MPC at CFA.HARVARD.EDU
            URL https://www.minorplanetcenter.net/    ISSN 1523-6714
                                    2023 VE3                                    
Observations:
     K23V03E*1C2023 11 07.41672605 01 04.822-01 11 04.56         17.78GVEV106703
     K23V03E 1C2023 11 07.42204605 01 05.574-01 14 48.16               VEV106703
     K23V03E 1C2023 11 07.43270005 01 07.266-01 22 16.72               VEV106703
     K23V03E mC2023 11 07.46461505 01 12.587-01 44 07.22         18.37GVEV106I52
     K23V03E mC2023 11 07.46478605 01 12.616-01 44 13.99         18.07GVEV106I52
     K23V03E mC2023 11 07.46495605 01 12.648-01 44 20.94         18.00GVEV106I52
     K23V03E mC2023 11 07.46512605 01 12.684-01 44 27.60         17.70GVEV106I52
     K23V03E mC2023 11 07.50304105 01 19.938-02 09 14.80         17.54GVEV106I52
     K23V03E mC2023 11 07.50321105 01 19.970-02 09 21.42         17.65GVEV106I52
     K23V03E mC2023 11 07.50338905 01 20.006-02 09 28.19         17.79GVEV106I52
     K23V03E mC2023 11 07.50355905 01 20.053-02 09 34.74         17.91GVEV106I52
     K23V03E mC2023 11 07.51760205 01 23.110-02 18 27.76         18.09GVEV106I52
     K23V03E mC2023 11 07.51782605 01 23.156-02 18 36.00         17.98GVEV106I52
     K23V03E mC2023 11 07.51805105 01 23.214-02 18 44.57         17.96GVEV106I52
     K23V03E mC2023 11 07.51827405 01 23.257-02 18 52.88         18.14GVEV106I52
     K23V03E  C2023 11 07.62563 05 03 06.38 -03 22 55.8          18.9 RmEV106P93
     K23V03E  C2023 11 07.62707 05 03 06.49 -03 23 43.8          17.9 RmEV106P93
     K23V03E  C2023 11 07.62998 05 03 06.79 -03 25 21.0          17.8 RmEV106P93
     K23V03E  C2023 11 07.63141 05 03 06.92 -03 26 08.5          18.9 RmEV106P93
     K23V03E  C2023 11 07.66557205 03 27.040-03 44 32.26         18.8 GVEV106O85
     K23V03E  C2023 11 07.66813105 03 27.302-03 45 54.68         18.2 GVEV106O85
     K23V03E  C2023 11 07.67068905 03 27.675-03 47 16.87         18.2 GVEV106O85
     K23V03E  C2023 11 07.67324805 03 27.953-03 48 38.28         18.0 GVEV106O85
     K23V03E  C2023 11 07.67580705 03 28.271-03 49 59.40         18.6 GVEV106O85
     K23V03E  C2023 11 07.67836505 03 28.547-03 51 20.89         18.5 GVEV106O85
     K23V03E  C2023 11 07.68092405 03 28.849-03 52 41.71         18.9 GVEV106O85
     K23V03E KC2023 11 07.95838505 04 47.57 -06 00 44.8          18.4 GVEV106203
     K23V03E KC2023 11 07.96968605 04 48.50 -06 05 13.9          18.5 GVEV106203
     K23V03E KC2023 11 07.98111905 04 49.34 -06 09 42.9          18.7 GVEV106203
     K23V03E KC2023 11 08.04727005 04 50.17 -06 34 36.6          18.7 GVEV106L01
     K23V03E KC2023 11 08.04875505 04 50.25 -06 35 09.0          18.5 GVEV106L01
     K23V03E KC2023 11 08.05024105 04 50.32 -06 35 41.3          18.9 GVEV106L01
     K23V03E KC2023 11 08.05172305 04 50.41 -06 36 13.4          18.9 GVEV106L01
     K23V03E KC2023 11 08.05320505 04 50.46 -06 36 45.4          18.8 GVEV106L01
Observer details:
203 GiaGa Observatory.  Observers S. Foglia, G. Galli.  Measurer G. Galli.
    0.36-m f/5.76 Schmidt-Cassegrain + CCD.
703 Catalina Sky Survey.  Observer G. J. Leonard.  Measurers E. C. Beshore, D.
    Fay, J. B. Fazekas, D. C. Fuls, A. R. Gibbs, A. D. Grauer, H. Groeller, J.
    K. Hogan, R. A. Kowalski, S. M. Larson, G. J. Leonard, D. Rankin, R. L.
    Seaman, F. C. Shelly, K. W. Wierzchos.  0.68-m Schmidt + 10K CCD.
I52 Steward Observatory, Mt. Lemmon Station.  Observer H. Groeller.  Measurers
    E. C. Beshore, D. Fay, J. B. Fazekas, D. C. Fuls, A. R. Gibbs, A. D.
    Grauer, H. Groeller, J. K. Hogan, R. A. Kowalski, S. M. Larson, G. J.
    Leonard, D. Rankin, R. L. Seaman, F. C. Shelly, K. W. Wierzchos.  1.0-m
    prime focus + CCD.
L01 Visnjan Observatory, Tican.  Observer K. Korlevic.  1.0-m f/2.9 reflector
    + CCD.
O85 LiShan Observatory, Lintong.  Observers Y. Yu, K. Tang, A. Pomazan.
    0.50-m f/7.0 Cassegrain + CCD.
P93 Space Tracking and Communications Center, JAXA.  Observers S. Urakawa, S.
    Okumura, O. Hashimoto.  1.0-m f/3.0 reflector + CCD.
Orbital elements:
2023 VE3                                                 Earth MOID = 0.0025 AU
Epoch 2023 Sept. 13.0 TT = JDT 2460200.5                Veres                   
M 347.62922              (2000.0)            P               Q                  
n   0.45808774     Peri.  145.80338     +0.97878722     -0.15259958             
a   1.6666213      Node   223.63071     +0.11349223     +0.95936914             
e   0.4340912      Incl.   11.42731     +0.17057282     +0.23732726             
P   2.15           H   26.89          G   0.15           U   7                  
Residuals in seconds of arc
231107 703  0.3+  1.2-    231107 I52  0.0   0.2+    231107 O85  0.1+  0.1-
231107 703  0.6-  1.5+    231107 I52  0.1+  0.1+    231107 O85  0.4+  0.1+
231107 703  0.0   1.5+    231107 I52  0.0   0.1+    231107 203  0.2+  0.5+
231107 I52  0.0   0.3-    231107 P93  0.6+  0.3-    231107 203  0.1+  0.0
231107 I52  0.0   0.2-    231107 P93  0.1-  0.1-    231107 203  0.0   0.4-
231107 I52  0.0   0.3-    231107 P93  0.4-  0.0     231108 L01  0.8-  0.3-
231107 I52  0.1+  0.1-    231107 P93  0.7-  0.2+    231108 L01  0.6-  0.3-
231107 I52  0.1+  0.0     231107 O85  0.2+  0.2+    231108 L01  0.5-  0.3-
231107 I52  0.0   0.1-    231107 O85  0.7-  0.1-    231108 L01  0.1-  0.1-
231107 I52  0.0   0.1-    231107 O85  0.3+  0.4-    231108 L01  0.3-  0.1+
231107 I52  0.2+  0.1-    231107 O85  0.1-  0.1-
231107 I52  0.1+  0.0     231107 O85  0.2+  0.2+
Ephemeris:
2023 VE3                 a,e,i = 1.67, 0.43, 11                  q = 0.9432
Date    TT    R. A. (2000) Decl.     Delta      r    Elong.  Phase     V
2023 10 09    17 03 35.0 +18 20 56   0.1657  0.9432    65.7   105.0    26.7
...
2023 10 24    17 13 15.2 +20 30 50   0.07776 0.9571    59.0   117.0    25.9
...
2023 11 01    17 18 05.8 +24 22 22   0.02993 0.9770    57.6   120.9    24.1
...
2023 11 07    04 56 45.1 +05 36 49   0.0069270.9970   146.3    33.5    17.5
2023 11 08    05 04 38.8 -06 07 40   0.01262 1.0007   139.9    39.7    19.0
2023 11 09    05 07 33.6 -10 29 10   0.01850 1.0044   137.3    42.0    19.9
...
2023 11 15    05 10 48.6 -16 21 17   0.05445 1.0290   135.7    42.2    22.3
...
2023 11 23    05 09 38.0 -17 06 53   0.1031  1.0666   138.1    38.2    23.6
...
2023 12 08    05 05 30.1 -15 24 50   0.1989  1.1483   141.9    32.0    25.0
M. P. C. Staff               (C) Copyright 2023 MPC           M.P.E.C. 2023-V106
    
    
More information about the Iaude
mailing list